Regional Weather Roundup
Issued by NWS Bismarck, ND

Home | Current Version | Previous Version | Text Only | Print | Product List | Glossary On
Versions: 1 2 3 4 5 6 7 8 9 10 11 12 13 14 15 16 17 18 19 20 21 22 23 24 25 26 27 28 29 30 31 32 33 34 35 36 37 38 39 40 41 42 43 44 45 46 47 48 49 50
000
ASUS43 KBIS 050402
RWRBIS

NWR BROADCAST TEXT
NATIONAL WEATHER SERVICE BISMARCK ND
1100 PM CDT SAT JUL 04 2015

NOTE: "FAIR" INDICATES FEW OR NO CLOUDS BELOW 12,000 FEET WITH NO
SIGNIFICANT WEATHER AND/OR OBSTRUCTIONS TO VISIBILITY.


CITY           SKY/WX    TMP DP  RH WIND       PRES   REMARKS
WILLISTON      CLEAR     73  66  78 N18       29.79R
MINOT          MOCLDY    68  62  81 SW7       29.72F
MINOT AFB      NOT AVBL
BISMARCK       PTCLDY    77  70  79 S6        29.74S
DICKINSON      PTCLDY    69  65  86 SW6       29.76R
GARRISON         N/A     70  64  81 N5        29.75R
HETTINGER ARPT CLOUDY    74  65  73 E6        29.77S
JAMESTOWN      CLOUDY    74  67  78 S9        29.75F
HAZEN          FAIR      68  66  94 NE7       29.75R FOG
OAKES            N/A     72  72 100 SE8       29.79F
STANLEY        FAIR      64  64 100 N7        29.80R
$$

CITY           SKY/WX    TMP DP  RH WIND       PRES   REMARKS
GRAND FORKS    CLOUDY    76  66  71 S13       29.70F
GRAND FORKS AF CLOUDY    76  67  73 S12       29.71F
DEVILS LAKE    CLOUDY    66  59  77 NE26G41   29.75R THUNDER
FARGO          MOCLDY    77  65  66 S13       29.77F
CAVALIER       FAIR      68  64  88 CALM      29.70S
GRAFTON        FAIR      75  68  78 S13       29.68F
GWINNER        FAIR      73  68  83 SE8       29.80F
LANGDON        MOCLDY    72  68  88 N21G39    29.78R THUNDER
ROLLA          FAIR      64  64 100 N12       29.77F
$$

CITY           SKY/WX    TMP DP  RH WIND       PRES   REMARKS
ABERDEEN       LGT RAIN  76  66  71 S13       29.80R
MOBRIDGE       MOCLDY    77  72  84 E10       29.73S
BUFFALO          N/A     75  52  44 SE9       29.73R
RAPID CITY     PTCLDY    70  65  84 CALM      29.82R
GLASGOW        CLEAR     72  53  51 NE16      29.79S
SIDNEY         CLEAR     73  64  73 N14       29.78R
WOLF POINT     CLEAR     74  56  53 NE12      29.80R
GLENDIVE       CLEAR     73  64  73 N14       29.79R
MILES CITY     PTCLDY    79  54  41 N3        29.76R
BAKER          CLEAR     68  58  70 S6        29.79S
$$

CITY           SKY/WX    TMP DP  RH WIND       PRES   REMARKS
BILLINGS       PTCLDY    82  44  26 NE9       29.80R
GREAT FALLS    PTCLDY    75  51  43 E6        29.78R
$$




USA.gov is the U.S. government's official web portal to all federal, state and local government web resources and services.